When you browse on this site, cookies collect data to enhance your experience and personalize the content and advertising you see.
Visit our Privacy Policy to learn more. By continuing to use the site, you agree to this use of cookies and data.
  • In Austria
  • List of Countries
  • For 7 days
  • Water Temperature
  • Weather Map
  • News
  • Weather Widgets
  • user-avatar
    Login

    Hourly Weather Borovec

    Today, 20 October, Sunday

    Time Temperature Precipitation Wind Pressure Humidity
    00:00 +15°C° 0 mm 1 mps 713 mmHg 66%
    01:00 +15°C° 0 mm 1 mps 713 mmHg 68%
    02:00 +15°C° 0 mm 1 mps 713 mmHg 70%
    03:00 +15°C° 0 mm 1 mps 713 mmHg 72%
    04:00 +14°C° 0 mm 1 mps 713 mmHg 73%
    05:00 +13°C° 0 mm 0 mps 713 mmHg 75%
    06:00 +14°C° 0 mm 0 mps 714 mmHg 73%
    07:00 +14°C° 0 mm 0 mps 714 mmHg 70%
    08:00 +15°C° 0 mm 0 mps 714 mmHg 65%
    09:00 +19°C° 0 mm 1 mps 715 mmHg 58%
    10:00 +22°C° 0 mm 1 mps 715 mmHg 51%
    11:00 +24°C° 0 mm 1 mps 715 mmHg 45%
    12:00 +25°C° 0 mm 1 mps 715 mmHg 42%
    13:00 +25°C° 0 mm 1 mps 715 mmHg 39%
    14:00 +26°C° 0 mm 1 mps 715 mmHg 36%
    15:00 +25°C° 0 mm 1 mps 715 mmHg 39%
    16:00 +24°C° 0 mm 1 mps 714 mmHg 43%
    17:00 +23°C° 0 mm 1 mps 714 mmHg 46%
    18:00 +21°C° 0 mm 1 mps 714 mmHg 51%
    19:00 +20°C° 0 mm 1 mps 714 mmHg 56%
    20:00 +18°C° 0 mm 1 mps 714 mmHg 61%
    21:00 +18°C° 0 mm 1 mps 715 mmHg 63%
    22:00 +16°C° 0 mm 1 mps 715 mmHg 65%
    23:00 +16°C° 0 mm 1 mps 715 mmHg 67%

    Tomorrow, 21 October, Monday

    Time Temperature Precipitation Wind Pressure Humidity
    00:00 +15°C° 0 mm 1 mps 715 mmHg 69%
    01:00 +14°C° 0 mm 0 mps 715 mmHg 70%
    02:00 +14°C° 0 mm 0 mps 715 mmHg 72%
    03:00 +13°C° 0 mm 0 mps 715 mmHg 74%
    04:00 +13°C° 0 mm 0 mps 715 mmHg 75%
    05:00 +13°C° 0 mm 0 mps 715 mmHg 76%
    06:00 +13°C° 0 mm 0 mps 715 mmHg 74%
    07:00 +14°C° 0 mm 0 mps 715 mmHg 71%
    08:00 +15°C° 0 mm 0 mps 715 mmHg 68%
    09:00 +17°C° 0 mm 0 mps 716 mmHg 60%
    10:00 +20°C° 0 mm 0 mps 716 mmHg 51%
    11:00 +22°C° 0 mm 0 mps 716 mmHg 43%
    12:00 +25°C° 0 mm 1 mps 716 mmHg 39%
    13:00 +26°C° 0 mm 1 mps 716 mmHg 36%
    14:00 +27°C° 0 mm 1 mps 716 mmHg 32%
    15:00 +25°C° 0 mm 1 mps 716 mmHg 36%
    16:00 +24°C° 0 mm 1 mps 715 mmHg 40%
    17:00 +23°C° 0 mm 1 mps 715 mmHg 43%
    18:00 +21°C° 0 mm 1 mps 715 mmHg 48%
    19:00 +20°C° 0 mm 1 mps 715 mmHg 53%
    20:00 +18°C° 0 mm 1 mps 715 mmHg 58%
    21:00 +18°C° 0 mm 1 mps 715 mmHg 60%
    22:00 +16°C° 0 mm 1 mps 715 mmHg 62%
    23:00 +15°C° 0 mm 0 mps 715 mmHg 64%

    Day after tomorrow, 22 October, Tuesday

    Time Temperature Precipitation Wind Pressure Humidity
    00:00 +14°C° 0 mm 0 mps 715 mmHg 66%
    01:00 +14°C° 0 mm 0 mps 715 mmHg 67%
    02:00 +13°C° 0 mm 0 mps 715 mmHg 68%
    03:00 +13°C° 0 mm 0 mps 715 mmHg 70%
    04:00 +13°C° 0 mm 0 mps 715 mmHg 71%
    05:00 +13°C° 0 mm 0 mps 715 mmHg 72%
    06:00 +13°C° 0 mm 0 mps 715 mmHg 70%
    07:00 +14°C° 0 mm 0 mps 715 mmHg 67%
    08:00 +15°C° 0 mm 0 mps 716 mmHg 65%
    09:00 +19°C° 0 mm 1 mps 716 mmHg 56%
    10:00 +21°C° 0 mm 1 mps 716 mmHg 48%
    11:00 +24°C° 0 mm 1 mps 717 mmHg 39%
    12:00 +24°C° 0 mm 2 mps 717 mmHg 36%
    13:00 +25°C° 0 mm 2 mps 716 mmHg 34%
    14:00 +26°C° 0 mm 3 mps 716 mmHg 31%
    15:00 +25°C° 0 mm 3 mps 716 mmHg 35%
    16:00 +22°C° 0 mm 3 mps 716 mmHg 40%
    17:00 +21°C° 0 mm 2 mps 715 mmHg 45%
    18:00 +19°C° 0 mm 2 mps 715 mmHg 50%
    19:00 +18°C° 0 mm 2 mps 715 mmHg 55%
    20:00 +16°C° 0 mm 1 mps 715 mmHg 60%
    21:00 +16°C° 0 mm 1 mps 716 mmHg 61%
    22:00 +15°C° 0 mm 1 mps 716 mmHg 63%
    23:00 +15°C° 0 mm 1 mps 716 mmHg 64%

    23 October, Wednesday

    Time Temperature Precipitation Wind Pressure Humidity
    00:00 +14°C° 0 mm 1 mps 716 mmHg 65%
    01:00 +14°C° 0 mm 1 mps 715 mmHg 66%
    02:00 +12°C° 0 mm 0 mps 715 mmHg 67%
    03:00 +12°C° 0 mm 0 mps 715 mmHg 68%
    04:00 +12°C° 0 mm 0 mps 715 mmHg 69%
    05:00 +11°C° 0 mm 0 mps 715 mmHg 70%
    06:00 +12°C° 0 mm 0 mps 715 mmHg 67%
    07:00 +13°C° 0 mm 0 mps 715 mmHg 65%
    08:00 +13°C° 0 mm 0 mps 715 mmHg 62%
    09:00 +16°C° 0 mm 0 mps 715 mmHg 53%
    10:00 +20°C° 0 mm 1 mps 716 mmHg 45%
    11:00 +23°C° 0 mm 1 mps 716 mmHg 36%
    12:00 +24°C° 0 mm 1 mps 715 mmHg 32%
    13:00 +25°C° 0 mm 1 mps 715 mmHg 27%
    14:00 +26°C° 0 mm 2 mps 715 mmHg 23%
    15:00 +24°C° 0 mm 1 mps 714 mmHg 26%
    16:00 +23°C° 0 mm 1 mps 714 mmHg 29%
    17:00 +21°C° 0 mm 1 mps 714 mmHg 32%
    18:00 +20°C° 0 mm 1 mps 714 mmHg 35%
    19:00 +18°C° 0 mm 1 mps 713 mmHg 39%
    20:00 +15°C° 0 mm 1 mps 713 mmHg 42%
    21:00 +15°C° 0 mm 1 mps 713 mmHg 43%
    22:00 +14°C° 0 mm 1 mps 714 mmHg 44%
    23:00 +14°C° 0 mm 1 mps 714 mmHg 45%

    24 October, Thursday

    Time Temperature Precipitation Wind Pressure Humidity
    00:00 +14°C° 0 mm 1 mps 713 mmHg 47%
    01:00 +13°C° 0 mm 1 mps 713 mmHg 49%
    02:00 +12°C° 0 mm 0 mps 713 mmHg 50%
    03:00 +11°C° 0 mm 0 mps 713 mmHg 51%
    04:00 +11°C° 0 mm 0 mps 713 mmHg 53%
    05:00 +11°C° 0 mm 0 mps 712 mmHg 54%
    06:00 +11°C° 0 mm 0 mps 713 mmHg 53%
    07:00 +12°C° 0 mm 0 mps 713 mmHg 52%
    08:00 +13°C° 0 mm 0 mps 713 mmHg 51%
    09:00 +15°C° 0 mm 0 mps 713 mmHg 45%
    10:00 +18°C° 0 mm 0 mps 713 mmHg 38%
    11:00 +22°C° 0 mm 1 mps 713 mmHg 31%
    12:00 +23°C° 0 mm 1 mps 713 mmHg 29%
    13:00 +24°C° 0 mm 1 mps 713 mmHg 27%
    14:00 +25°C° 0 mm 1 mps 712 mmHg 24%
    15:00 +24°C° 0 mm 1 mps 712 mmHg 28%
    16:00 +22°C° 0 mm 1 mps 711 mmHg 32%
    17:00 +21°C° 0 mm 1 mps 711 mmHg 36%
    18:00 +19°C° 0 mm 1 mps 711 mmHg 40%
    19:00 +18°C° 0 mm 1 mps 711 mmHg 44%
    20:00 +15°C° 0 mm 1 mps 711 mmHg 48%
    21:00 +15°C° 0 mm 1 mps 711 mmHg 50%
    22:00 +14°C° 0 mm 1 mps 711 mmHg 52%
    23:00 +13°C° 0 mm 1 mps 711 mmHg 54%

    25 October, Friday

    Time Temperature Precipitation Wind Pressure Humidity
    00:00 +13°C° 0 mm 1 mps 711 mmHg 55%
    01:00 +13°C° 0 mm 1 mps 711 mmHg 57%
    02:00 +12°C° 0 mm 1 mps 711 mmHg 58%
    03:00 +11°C° 0 mm 0 mps 711 mmHg 59%
    04:00 +11°C° 0 mm 0 mps 711 mmHg 60%
    05:00 +10°C° 0 mm 0 mps 711 mmHg 61%
    06:00 +11°C° 0 mm 0 mps 711 mmHg 59%
    07:00 +12°C° 0 mm 0 mps 711 mmHg 58%
    08:00 +12°C° 0 mm 0 mps 711 mmHg 56%
    09:00 +15°C° 0 mm 0 mps 712 mmHg 49%
    10:00 +17°C° 0 mm 0 mps 712 mmHg 42%
    11:00 +22°C° 0 mm 1 mps 712 mmHg 34%
    12:00 +23°C° 0 mm 1 mps 712 mmHg 32%
    13:00 +24°C° 0 mm 1 mps 712 mmHg 30%
    14:00 +25°C° 0 mm 1 mps 712 mmHg 28%
    15:00 +23°C° 0 mm 1 mps 712 mmHg 32%
    16:00 +22°C° 0 mm 1 mps 711 mmHg 36%
    17:00 +20°C° 0 mm 1 mps 711 mmHg 41%
    18:00 +19°C° 0 mm 1 mps 711 mmHg 45%
    19:00 +16°C° 0 mm 1 mps 711 mmHg 49%
    20:00 +15°C° 0 mm 1 mps 712 mmHg 53%
    21:00 +14°C° 0 mm 1 mps 712 mmHg 54%
    22:00 +14°C° 0 mm 1 mps 712 mmHg 56%
    23:00 +12°C° 0 mm 0 mps 712 mmHg 57%
    Show more